Regional Weather Roundup
Issued by NWS Mobile, AL

Home | Current Version | Previous Version | Text Only | Print | Product List | Glossary On
Versions: 1 2 3 4 5 6 7 8 9 10 11 12 13 14 15 16 17 18 19 20 21 22 23 24 25 26 27 28 29 30 31 32 33 34 35 36 37 38 39 40 41 42 43 44 45 46 47 48 49 50
897
ASUS44 KMOB 280012
RWRMOB
REGIONAL WEATHER ROUNDUP
NATIONAL WEATHER SERVICE MOBILE AL
700 PM CDT SAT MAY 27 2017

NOTE: "FAIR" INDICATES FEW OR NO CLOUDS BELOW 12,000 FEET WITH NO
      SIGNIFICANT WEATHER AND/OR OBSTRUCTIONS TO VISIBILITY.

  * THESE STATIONS ARE PART OF THE UNIVERSITY OF SOUTH ALABAMA
    MESONET AND ARE NOT UNDER NWS OR FAA QUALITY CONTROL.

ALZ061>064-280100-
COASTAL ALABAMA

CITY           SKY/WX    TMP DP  RH WIND       PRES   REMARKS
MOBILE REG APT PTCLDY    82  73  74 S13       29.99F
6HR MIN TEMP:  82; 6HR MAX TEMP:  88;

BROOKLEY FIELD PTCLDY    83  75  77 SW6       30.00F
6HR MIN TEMP:  83; 6HR MAX TEMP:  86;

USA CAMPUS*      N/A     81  73  78 CALM      29.99F
DOG RIVER*       N/A     82  75  78 S5        30.73F


CITY           SKY/WX    TMP DP  RH WIND       PRES   REMARKS
GULF SHORES    PTCLDY    79  78  96 SW10G16   30.00F

$$

ALZ051>060-280100-
INTERIOR SOUTHWEST AND SOUTH CENTRAL ALABAMA

CITY           SKY/WX    TMP DP  RH WIND       PRES   REMARKS
GREENVILLE     CLEAR     85  66  53 SW5       29.96F
6HR MIN TEMP:  82; 6HR MAX TEMP:  89;

EVERGREEN      CLEAR     85  70  60 SW6       29.97F
6HR MIN TEMP:  84; 6HR MAX TEMP:  89;

ATMORE*          N/A     82  72  69 SW12      29.99F
ANDALUSIA/OPP  CLEAR     86  70  58 SW3       29.97F
6HR MIN TEMP:  86; 6HR MAX TEMP:  92;

ANDALUSIA*       N/A     84  70  61 SW7       29.98F
FLORALA APT    CLEAR     84  69  60 SW6       29.99F
6HR MIN TEMP:  84; 6HR MAX TEMP:  90;

FLORALA*         N/A     84  70  61 CALM      30.66F

$$

FLZ001>006-280100-
WESTERN FLORIDA PANHANDLE

CITY           SKY/WX    TMP DP  RH WIND       PRES   REMARKS
PENSACOLA      PTCLDY    82  73  74 SW13      29.99F
6HR MIN TEMP:  82; 6HR MAX TEMP:  87;

NAS PENSACOLA  PTCLDY    79  75  87 SW12      29.99F
6HR MIN TEMP:  77; 6HR MAX TEMP:  85;

MILTON         CLEAR     81  74  79 S12       29.98F
6HR MIN TEMP:  81; 6HR MAX TEMP:  88;

WHTNG S FIELD    N/A    N/A N/A N/A MISG      29.99F


CITY           SKY/WX    TMP DP  RH WIND       PRES   REMARKS
JAY*             N/A     84  70  61 S15       29.97F
DUKE FIELD     CLEAR     83  70  64 SW12      29.98F
CRESTVIEW      CLEAR     84  70  62 SW10      30.00S
6HR MIN TEMP:  84; 6HR MAX TEMP:  91;

VALPARAISO     PTCLDY    80  74  80 SW12      29.99F
6HR MIN TEMP:  80; 6HR MAX TEMP:  86;

DESTIN         CLEAR     83  81  94 VRB6      29.99F HX  97
6HR MIN TEMP:  83; 6HR MAX TEMP:  86;


$$

MSZ076-079-280100-
INTERIOR SOUTHEAST MISSISSIPPI

CITY           SKY/WX    TMP DP  RH WIND       PRES   REMARKS
LEAKESVILLE*   NOT AVBL
AGRICOLA*        N/A     81  75  83 CALM      29.97F

$$

MARINE OBSERVATIONS

STATION/POSITION TIME  TEMP    WIND        PRES    WAVE
                       AIR SEA DIR/SP/G            HT/PER
                 (UTC) (F)     (DEG/KT/KT) (MB)    (FT/S)
PASCAGOULA       2348   80     190/  7/  9 1015.5F
PETIT BOIS ISLND 2348   80     180/ 11/ 13 1016.2F
GRAND BAY        2245   81     190/ 10     1017.0S
KATRINA CUT      2300   80     190/ 12     1016.3
CEDAR POINT      2330   81     190/ 13     1015.6F
E DAUPHIN ISLAND 2300   80     180/ 11/ 13 1015.8F
MIDDLE BAY LIGHT 2300   80     190/ 12     1016.6
USCG MOBILE BAY  2348   81 78  200/  7/  9 1016.1F
STATE DOCKS      2348   82 78              1015.3F
MEAHER PARK      2330   79     180/ 13     1015.6F
FORT MORGAN      2348   79     190/ 12/ 13   N/A
12 S ORANGE BCH  2250   79 80  190/ 10/ 12 1016.0F   2/ 5
PENSACOLA BAY    2348   81 81              1016.0F
64 S DAUPHIN ISL 2350   80 80  160/  8/ 10 1016.4F   2/ 4
67 S FORT MORGAN 2330   79     160/  8     1016.6F

$$

SELECTED LOCATIONS ACROSS THE REGION

CITY           SKY/WX    TMP DP  RH WIND       PRES   REMARKS
NEW ORLEANS    MOSUNNY   84  75  74 S10       29.97F
GULFPORT       CLEAR     83  75  77 S7        29.97F
PASCAGOULA AP  CLEAR     82  73  74 VRB5      29.99F
PASCAGOULA*    NOT AVBL
HATTIESBURG    CLEAR     85  74  69 S9        29.95F
LAUREL         CLEAR     84  72  65 S7        29.97S
MERIDIAN       CLEAR     87  74  64 S7        29.93S HX  95
JACKSON        PTSUNNY   86  72  62 S12       29.91F
MONTGOMERY     CLEAR     85  66  53 SW6       29.95F
TROY           PTCLDY    83  70  64 SW6       29.97F
ASHFORD*         N/A     84  70  61 SW7       29.98F
DOTHAN         CLEAR     85  67  54 W7        30.01F
PANAMA CITY    CLEAR     81  72  74 SW10      29.99F

$$





USA.gov is the U.S. government's official web portal to all federal, state and local government web resources and services.